Farmville, Virginia, United States (23901)
Lat: 37.30N, Lon: 78.39W
Wx Zone: VAZ060
Local Info
Past Weather Observations for Today

NOTE: This archive is for the closest National Weather Service station to Farmville. Information may differ from the station used for current weather conditions.

Click here for Long-term Archive

Time Weather Temperature Dewpoint Humidity Pressure Winds Precip Visibility
06:54
Overcast
Fog And Mist
66°F / 19°C 66°F / 19°C 100% 29.95 in
(1014 mb)
Calm - 2SM
06:48
Overcast
Fog And Mist
66°F / 19°C 66°F / 19°C 100% 29.95 in
(1014 mb)
Calm - 2SM
05:54
Overcast
66°F / 19°C 66°F / 19°C 100% 29.95 in
(1014 mb)
E 3.5 mph
(E 6 kph)
- 10SM
05:35
Overcast
66°F / 19°C 66°F / 19°C 100% 29.95 in
(1014 mb)
Calm - 9SM
04:54
Overcast
66°F / 19°C 66°F / 19°C 100% 29.95 in
(1014 mb)
Calm - 10SM
04:51
Overcast
66°F / 19°C 66°F / 19°C 100% 29.95 in
(1014 mb)
Calm - 10SM
04:34
Overcast
Fog And Mist
66°F / 19°C 66°F / 19°C 100% 29.95 in
(1014 mb)
Calm - 6SM
04:22
Overcast
66°F / 19°C 66°F / 19°C 100% 29.95 in
(1014 mb)
Calm - 7SM
03:54
Overcast
66°F / 19°C 66°F / 19°C 100% 29.95 in
(1014 mb)
Calm - 10SM
03:15
Overcast
64°F / 18°C 64°F / 18°C 100% 29.92 in
(1013 mb)
Calm - 7SM
03:06
Mostly Cloudy
Fog And Mist
64°F / 18°C 64°F / 18°C 100% 29.95 in
(1014 mb)
Calm - 2SM
03:01
Mostly Cloudy
Fog And Mist
64°F / 18°C 64°F / 18°C 100% 29.95 in
(1014 mb)
Calm - 1 1/4SM
02:59
Mostly Cloudy
Fog And Mist
64°F / 18°C 64°F / 18°C 100% 29.95 in
(1014 mb)
Calm - 1 1/2SM
02:54
Partly Cloudy
Fog And Mist
64°F / 18°C 64°F / 18°C 100% 29.95 in
(1014 mb)
Calm 0.01 in
(0.25 mm)
1 1/4SM
02:48
Clear
Fog And Mist
64°F / 18°C 64°F / 18°C 100% 29.95 in
(1014 mb)
Calm 0.01 in
(0.25 mm)
1 3/4SM
01:54
Overcast
Heavy Rain
66°F / 19°C 64°F / 18°C 94% 29.95 in
(1014 mb)
NW 3.5 mph
(NW 6 kph)
0.06 in
(1.52 mm)
3SM
01:42
Mostly Cloudy
Light Rain
66°F / 19°C 64°F / 18°C 94% 29.95 in
(1014 mb)
Calm 0.01 in
(0.25 mm)
9SM
01:30
Mostly Cloudy
Thunder Storms
66°F / 19°C 66°F / 19°C 100% 29.95 in
(1014 mb)
Calm - 10SM
01:21
Mostly Cloudy
Thunder Storms
66°F / 19°C 64°F / 18°C 94% 29.95 in
(1014 mb)
Calm - 10SM
00:54
Mostly Cloudy
66°F / 19°C 66°F / 19°C 100% 29.95 in
(1014 mb)
Calm - 10SM
00:31
Mostly Cloudy
66°F / 19°C 64°F / 18°C 94% 29.95 in
(1014 mb)
Calm - 10SM
00:16
Mostly Cloudy
Thunder Storms
66°F / 19°C 64°F / 18°C 94% 29.95 in
(1014 mb)
Calm - 10SM
Time Weather Temperature Dewpoint Humidity Pressure Winds Precip Visibility


Weather for websites

WeatherForYou.com, LLC is not responsible for any damages or problems caused by this service. Current weather conditions are obtained from the closest station including government and personal stations which may have varying degrees of accuracy. Weather forecasts are derived from the NOAA NDFD. Like all things, this site belongs to Jesus Christ... He just trusts us to maintain it. If you have any questions or comments email webmaster@weatherforyou.com

Copyright © 2016, WeatherForYou.com LLC. All rights reserved.